Weather in Ivanovskaya

Russia / Vologda Oblast     60°39′22″N   37°59′39″E
temp.,
°C
wind,
m/s
gust,
m/s
humid.,
%
clouds,
%
prec.,
mm/h
press.,
hPa
HPBL,
m
9 march, tue
tue900:00−24n249998 0.0 101595
03:00−27n239972 0.0 101766
06:00−29n25980 0.0 101997
09:00−27nne36950 0.0 1021250
12:00−22nne359360 0.0 1022382
15:00−19nne368858 0.0 1023527
18:00−22n239473 0.0 102423
21:00−25n239737 0.0 102737
10 march, wed
wed1000:00−26n22950 0.0 102719
03:00−26wnw23900 0.0 102846
06:00−22wnw3108885 0.0 1028269
09:00−20nw499592 0.0 1028341
12:00−15nw3694100 0.0 1028366
15:00−12nw3693100 0.1 1028439
18:00−15nw3796100 0.1 1028238
21:00−18nw369795 0.1 1030113
11 march, thu
thu1100:00−19nw23930 0.0 103073
03:00−20nw23860 0.0 103120
06:00−21wnw22840 0.0 103120
09:00−17wsw23890 0.0 103196
12:00−11sw24880 0.0 1029263
15:00−8sw37830 0.0 1027607
18:00−11ssw389221 0.0 1025258
21:00−13sw4139421 0.0 1024447
12 march, fri
fri1200:00−12sw4118978 0.0 1023429
03:00−15sw3119470 0.0 1022285
06:00−16sw499560 0.0 1022256
09:00−14ssw4109460 0.0 1021283
12:00−9ssw4108920 0.0 1020385
15:00−5ssw512839 0.0 1018613
18:00−7s514860 0.0 1017563
21:00−10ssw515899 0.0 1017565
13 march, sat
sat1300:00−10ssw5149284 0.0 1017567
03:00−11s4129392 0.1 1015518
06:00−12s51393100 0.1 1014531
09:00−13s51393100 0.2 1013547
12:00−10s51192100 0.1 1012651
15:00−8s51191100 0.3 1011739
18:00−6s51193100 0.3 1010699
21:00−6s41194100 0.4 1009507